Weather History for Vero Beach, FL

Change the Weather History Date:

Wednesday, January 16, 2013

  Actual Average Record
Temperature  
Mean Temperature 69 °F 62 °F  
Max Temperature 82 °F 72 °F 83 °F (1987)
Min Temperature 56 °F 51 °F 31 °F (1978)
Degree Days  
Heating Degree Days 0 5  
Month to date heating degree days 0 80  
Since 1 July heating degree days 113 215  
Cooling Degree Days 4 2  
Month to date cooling degree days 94 32  
Year to date cooling degree days 94 32  
Growing Degree Days 19 (Base 50)    
Moisture  
Dew Point 61 °F    
Average Humidity 76    
Maximum Humidity 100    
Minimum Humidity 51    
Precipitation  
Precipitation 0.00 in 0.08 in 1.12 in (1991)
Month to date precipitation 0.63 1.29  
Year to date precipitation 0.63 1.29  
Sea Level Pressure  
Sea Level Pressure 30.07 in    
Wind  
Wind Speed 6 mph (SSE)    
Max Wind Speed 16 mph    
Max Gust Speed 18 mph    
Visibility 9 miles    
Events      
T = Trace of Precipitation, MM = Missing Value Source: NWS Daily Summary

Daily Weather History Graph

Daily Weather History Graph

Search for Another Location

Airport:

Trip Planner

Search our weather history database for the weather conditions in past years. The results will help you decide how hot, cold, wet, or windy it might be!

Date:

Astronomy

Jan. 16, 2013 Rise Set
Actual Time 7:13 AM EST 5:49 PM EST
Civil Twilight 6:48 AM EST 6:15 PM EST
Nautical Twilight 6:19 AM EST 6:43 PM EST
Astronomical Twilight 5:51 AM EST 7:11 PM EST
Moon 10:21 AM EST (1/16) 11:04 PM EST (1/16)
Length of Visible Light 11h 26m
Length of Day
10h 36m
Waxing Crescent, 28% of the Moon is Illuminated
Jan 16
Waxing Crescent
Jan 18
First Quarter
Jan 26
Full
Feb 3
Last Quarter
Feb 10
New

Hourly Weather History & Observations

Time (EST) Temp. Heat Index Dew Point Humidity Pressure Visibility Wind Dir Wind Speed Gust Speed Precip Events Conditions
12:53 AM 60.1 °F - 59.0 °F 96% 30.07 in 10.0 mi Calm Calm - N/A   Clear
1:53 AM 60.1 °F - 57.9 °F 93% 30.08 in 10.0 mi Calm Calm - N/A   Clear
2:53 AM 60.1 °F - 57.9 °F 93% 30.07 in 10.0 mi Calm Calm - N/A   Clear
3:53 AM 59.0 °F - 57.0 °F 93% 30.07 in 10.0 mi Calm Calm - N/A   Clear
4:53 AM 57.9 °F - 57.0 °F 97% 30.07 in 10.0 mi Calm Calm - N/A   Partly Cloudy
5:49 AM 57.2 °F - 55.4 °F 94% 30.07 in 1.5 mi Calm Calm - N/A   Partly Cloudy
5:53 AM 57.9 °F - 55.9 °F 93% 30.07 in 1.0 mi Calm Calm - N/A   Mist
5:59 AM 57.2 °F - 55.4 °F 94% 30.07 in 2.0 mi Calm Calm - N/A   Scattered Clouds
6:06 AM 57.2 °F - 55.4 °F 94% 30.07 in 10.0 mi Calm Calm - N/A   Mostly Cloudy
6:24 AM 57.2 °F - 55.4 °F 94% 30.07 in 10.0 mi Calm Calm - N/A   Scattered Clouds
7:30 AM 57.2 °F - 55.4 °F 94% 30.09 in 6.0 mi Calm Calm - N/A   Partly Cloudy
7:53 AM 59.0 °F - 57.9 °F 96% 30.10 in 10.0 mi Calm Calm - N/A   Clear
8:53 AM 69.1 °F - 64.0 °F 84% 30.12 in 10.0 mi West 3.5 mph - N/A   Clear
9:53 AM 75.0 °F - 64.0 °F 69% 30.13 in 10.0 mi SSW 5.8 mph - N/A   Clear
10:53 AM 78.1 °F - 64.0 °F 62% 30.11 in 10.0 mi SSW 6.9 mph - N/A   Scattered Clouds
11:53 AM 78.1 °F - 63.0 °F 60% 30.09 in 10.0 mi South 5.8 mph - N/A   Scattered Clouds
12:53 PM 81.0 °F 81.7 °F 61.0 °F 50% 30.06 in 10.0 mi SSW 9.2 mph - N/A   Scattered Clouds
1:53 PM 80.1 °F 81.7 °F 64.0 °F 58% 30.04 in 10.0 mi SE 10.4 mph - N/A   Mostly Cloudy
2:53 PM 78.1 °F - 64.9 °F 64% 30.03 in 10.0 mi ESE 15.0 mph - N/A   Mostly Cloudy
3:53 PM 77.0 °F - 64.9 °F 66% 30.04 in 10.0 mi SE 13.8 mph - N/A   Mostly Cloudy
4:53 PM 75.9 °F - 64.9 °F 69% 30.04 in 10.0 mi SE 11.5 mph - N/A   Scattered Clouds
5:53 PM 75.0 °F - 66.0 °F 73% 30.05 in 10.0 mi SE 9.2 mph - N/A   Mostly Cloudy
6:53 PM 73.9 °F - 66.9 °F 79% 30.06 in 10.0 mi SE 8.1 mph - N/A   Scattered Clouds
7:53 PM 73.0 °F - 66.9 °F 81% 30.07 in 10.0 mi SSE 4.6 mph - N/A   Scattered Clouds
8:53 PM 73.9 °F - 66.9 °F 79% 30.07 in 10.0 mi South 5.8 mph - N/A   Mostly Cloudy
9:53 PM 73.9 °F - 66.9 °F 79% 30.07 in 10.0 mi South 9.2 mph - N/A   Overcast
10:53 PM 72.0 °F - 66.0 °F 81% 30.06 in 10.0 mi South 6.9 mph - N/A   Partly Cloudy
11:53 PM 70.0 °F - 66.0 °F 87% 30.05 in 10.0 mi South 8.1 mph - N/A   Clear